Wind_Speed
50 50 49 49 48 48 48 48 47 47 47 47 47 46 46 46 45 45 45 45 44 44 44 44 44 44 44 44 44 44 45 45 45 45 44 44 44 45 45 45 46 46 46 47 47 47 47 47 47 47 47 47 47 47 47 48 48 48 48 48 48 47 47 47 47 47 47 47 47 47 48 48 48 49 49 49 49 49 49 48 48 47 46 45 44 44
51 50 50 49 49 48 48 47 47 47 47 46 46 46 45 45 45 44 44 44 44 44 43 43 44 44 44 44 44 44 45 45 45 45 45 45 45 45 45 45 45 46 46 46 47 47 47 48 48 48 48 48 48 48 48 48 48 49 49 49 49 48 48 48 47 47 47 47 47 47 48 48 48 49 49 49 49 49 48 48 48 47 45 44 43 43
51 51 50 49 49 48 48 47 47 47 46 46 46 45 45 44 44 44 43 43 43 43 42 42 42 42 43 43 43 44 44 44 45 45 45 45 45 45 45 45 45 46 46 46 46 47 47 48 48 48 49 49 49 49 49 49 49 49 50 50 50 49 49 49 48 48 48 47 47 47 48 48 48 48 49 49 48 48 48 48 47 46 45 43 42 42
52 51 51 50 49 48 48 47 47 46 46 46 45 45 45 44 44 43 43 43 42 42 42 42 42 42 42 42 42 42 43 43 44 44 44 45 45 45 46 46 46 46 46 46 46 46 47 47 48 48 49 49 49 49 49 50 50 50 50 50 50 50 50 50 49 49 48 48 47 47 48 48 48 48 48 48 48 48 48 48 47 46 44 43 42 41
53 52 52 51 50 49 49 48 47 47 47 46 46 45 45 45 45 44 44 44 43 43 43 43 42 42 42 42 42 42 42 42 43 43 43 44 44 45 45 46 46 46 47 47 47 47 47 47 47 48 48 49 49 49 50 50 50 51 51 51 51 51 51 51 51 50 49 49 48 48 48 48 48 48 48 48 48 48 48 47 46 45 43 42 41 41
54 54 53 52 51 51 50 49 49 48 48 47 47 47 46 46 46 46 46 45 45 45 45 45 44 44 44 43 43 43 43 43 43 43 43 43 44 44 45 45 46 46 47 47 48 48 48 48 48 48 48 48 48 49 49 50 50 51 51 51 52 52 52 52 52 51 51 50 49 49 49 48 48 48 48 48 48 48 47 47 46 44 43 41 41 40
55 55 55 54 53 53 52 51 51 50 50 49 49 49 48 48 48 48 48 48 48 47 47 47 47 47 46 46 45 45 45 44 44 44 44 44 44 44 44 45 45 46 46 47 48 48 48 48 49 49 49 48 49 49 49 50 50 51 51 52 52 52 52 53 53 52 52 52 51 50 50 50 49 49 48 48 48 48 47 47 46 44 42 41 41 40
57 57 56 56 55 55 54 54 53 53 52 52 52 51 51 51 50 50 50 50 50 50 50 50 49 49 49 48 48 47 47 47 46 46 46 45 45 45 45 45 45 46 46 47 47 48 48 49 49 49 50 50 50 50 50 50 50 51 51 52 52 52 53 53 53 53 53 52 52 52 52 51 51 50 49 49 49 48 48 47 46 45 43 42 41 41
58 58 58 58 57 57 56 56 56 55 55 54 54 54 53 53 53 52 52 52 52 52 51 51 51 51 51 51 50 49 49 49 48 48 47 47 47 47 46 46 46 46 46 46 47 47 48 48 49 50 50 51 51 51 51 51 51 51 51 52 52 52 52 53 53 53 53 53 53 53 53 53 52 52 51 50 50 50 49 49 47 46 44 43 42 41
59 59 59 59 59 58 58 58 58 58 57 57 57 56 56 55 55 55 54 54 54 54 53 53 53 53 53 52 52 51 51 51 50 50 49 49 48 48 48 47 47 47 47 47 47 47 47 48 48 49 50 51 51 52 52 52 52 52 52 52 52 52 52 52 53 53 53 53 54 54 54 54 54 54 53 52 52 51 51 50 49 48 46 45 43 42
60 60 60 60 60 60 60 60 60 59 59 59 59 59 58 58 57 56 56 56 56 56 55 55 55 54 54 54 54 53 53 52 52 51 51 50 50 49 49 49 48 48 48 48 47 47 48 48 48 49 50 50 51 52 52 53 53 53 53 52 52 52 52 52 52 53 53 53 54 54 55 55 55 55 54 54 54 53 53 52 51 50 48 47 45 44
61 61 61 61 61 61 61 61 61 61 61 61 61 61 60 60 59 59 58 58 58 57 57 57 57 56 56 55 55 55 54 53 53 52 52 51 51 51 50 50 49 49 48 48 48 48 48 48 48 49 49 50 51 51 52 53 53 53 53 53 52 52 51 51 51 52 52 52 53 54 54 55 55 55 55 55 55 55 55 54 53 52 51 49 47 46
61 61 61 62 62 62 62 62 62 62 62 62 62 62 62 62 61 61 60 60 60 59 59 59 58 58 58 57 56 56 55 55 54 54 53 53 52 52 51 51 50 50 49 49 49 49 48 48 49 49 49 50 50 51 52 52 53 53 53 53 53 52 51 51 50 50 50 51 51 51 52 53 53 54 55 55 56 56 57 56 55 54 52 51 49 47
61 61 61 62 62 63 63 63 63 63 63 63 63 63 64 64 63 63 62 62 62 61 61 60 60 60 60 59 58 58 57 56 56 55 55 54 54 53 53 52 52 51 51 50 50 49 49 49 49 49 50 50 50 51 51 52 52 53 53 53 53 52 52 51 50 50 49 49 49 49 50 50 51 52 53 54 55 56 56 56 56 55 53 52 50 48
62 61 61 62 62 63 63 63 63 63 64 64 64 64 64 64 64 64 64 63 63 63 62 62 62 62 61 61 60 59 58 58 57 56 56 56 55 55 54 54 53 53 52 51 51 51 50 50 50 50 50 50 50 51 51 51 52 52 53 53 53 52 52 51 50 49 48 48 47 48 48 49 49 50 50 51 52 53 53 53 54 53 53 52 51 50
63 62 62 63 63 63 63 63 63 63 64 64 64 64 64 64 65 65 64 64 64 64 63 63 63 63 63 62 62 61 60 59 59 58 57 57 57 56 56 55 55 54 54 53 53 52 51 51 51 51 50 50 51 51 51 51 52 52 52 52 52 52 52 51 51 49 48 47 47 47 47 47 47 47 48 48 49 49 49 50 50 50 50 50 51 51
64 64 64 64 64 63 64 64 63 64 64 64 64 65 65 65 65 65 65 65 65 65 64 64 64 63 63 63 63 63 62 60 60 59 59 58 58 58 57 56 56 56 55 54 54 53 53 52 52 52 51 51 51 51 52 52 52 52 52 52 52 52 52 51 51 50 49 47 46 46 46 46 46 46 46 47 47 47 47 47 47 47 48 48 49 50
66 65 65 64 64 64 64 64 64 64 64 64 65 65 65 65 65 65 65 65 65 65 65 65 64 64 64 63 64 64 63 61 61 61 60 59 59 59 58 58 57 57 57 56 55 55 54 53 53 53 52 52 52 52 52 53 53 53 52 52 52 52 51 51 51 51 50 49 48 47 46 46 46 46 46 47 47 47 46 46 46 46 46 47 47 48
67 66 65 65 65 65 65 65 65 65 65 65 65 65 65 66 66 66 65 65 65 65 65 65 65 65 64 64 64 64 64 62 62 62 61 60 60 60 60 59 58 58 58 57 57 56 55 55 54 54 54 54 54 54 54 54 54 54 54 53 53 52 52 52 52 52 52 51 50 49 48 47 47 47 48 48 48 47 47 46 46 46 46 47 47 48
67 67 66 66 66 66 66 66 66 66 65 65 65 65 65 66 66 66 66 66 65 65 65 65 65 65 65 64 65 65 64 63 63 62 62 61 61 61 60 60 59 59 59 58 58 57 56 56 55 55 55 55 55 55 55 55 55 55 55 55 54 54 53 53 53 53 53 53 52 52 51 50 50 50 50 51 50 50 48 48 47 47 47 48 48 48
68 68 68 67 66 66 66 67 67 66 66 66 65 65 66 66 66 66 66 66 66 65 65 65 65 65 65 64 65 65 65 64 63 63 63 62 62 62 61 61 60 60 60 59 59 58 57 57 56 56 56 56 56 56 56 56 56 56 56 56 56 55 55 54 54 54 54 54 54 54 53 53 52 52 53 54 54 53 52 51 50 49 49 49 50 50
69 68 69 68 67 67 67 67 67 66 66 66 66 66 66 66 66 66 66 66 66 66 66 65 66 66 65 65 65 66 65 64 63 63 63 62 62 63 62 61 60 60 60 60 60 59 58 58 57 57 57 57 57 57 57 57 57 57 57 57 57 57 56 56 56 55 55 56 56 56 56 55 55 55 55 56 56 56 56 55 53 52 52 51 52 52
70 69 69 68 68 68 68 67 67 67 67 66 66 66 66 66 66 66 66 66 66 66 66 66 66 66 66 66 66 66 65 65 64 64 63 62 62 63 63 61 61 61 61 61 60 60 59 59 59 58 58 58 58 58 58 58 58 58 58 58 58 58 57 57 57 57 57 57 57 57 57 57 57 56 57 57 58 59 59 58 57 56 55 54 54 54
71 70 70 69 69 68 68 67 67 67 67 66 66 66 67 66 66 66 66 66 66 66 66 66 66 66 66 66 66 66 66 65 65 64 63 63 63 64 63 62 61 62 62 62 61 60 60 60 60 60 59 59 59 59 59 59 59 59 59 59 59 59 58 58 58 58 58 58 58 58 58 58 58 58 58 58 59 60 60 61 61 60 59 58 57 56
71 71 70 70 70 69 68 68 67 67 67 66 66 66 67 67 67 67 67 66 66 66 66 66 66 66 67 66 66 65 66 66 65 64 63 63 64 64 63 63 62 62 62 62 62 61 61 61 61 61 60 60 60 60 60 60 61 61 60 60 60 60 59 59 59 59 59 59 59 59 59 59 59 59 59 59 60 60 61 62 62 62 61 60 59 58
71 71 71 71 70 70 69 68 68 67 67 66 66 66 67 67 67 67 67 67 67 67 66 66 66 66 67 66 65 66 67 66 65 64 64 64 64 64 64 63 63 62 63 63 62 62 61 62 62 61 61 61 61 62 62 62 62 62 62 62 61 61 61 60 60 60 60 60 60 60 60 60 60 60 60 60 60 60 61 62 62 63 62 62 61 60
70 70 71 71 70 70 69 69 68 68 67 67 67 67 67 66 66 66 67 68 68 67 66 66 66 67 67 66 66 66 67 66 65 65 65 64 64 64 65 64 63 63 63 63 63 62 62 62 62 62 62 62 62 63 63 63 63 63 63 63 63 62 62 62 61 61 61 61 61 61 61 61 61 61 61 60 60 60 60 61 62 62 62 62 61 60
70 70 70 70 70 70 69 69 68 68 68 67 67 67 67 66 66 66 67 68 67 66 65 66 67 67 66 66 66 67 67 66 66 66 66 64 64 65 66 65 64 63 63 64 64 63 63 63 63 63 63 63 63 64 64 64 64 64 64 64 64 64 63 63 62 62 62 62 61 61 61 61 61 61 61 61 60 60 60 60 61 62 62 62 62 61
69 69 69 69 69 69 69 68 68 68 68 67 67 67 67 66 66 66 67 68 66 65 66 67 67 67 66 67 67 67 66 66 67 67 66 64 64 66 67 65 64 64 64 64 64 64 63 64 64 63 63 64 64 64 65 65 65 65 66 65 65 65 64 64 63 63 62 62 62 62 61 61 61 61 61 61 60 60 60 60 60 60 61 62 62 61
69 69 69 69 69 69 68 68 68 68 68 67 67 67 67 66 66 66 67 66 65 65 66 67 67 66 66 67 67 66 67 67 68 67 65 64 65 67 67 65 65 65 65 64 64 64 64 65 64 64 64 64 64 65 65 66 66 66 66 66 66 65 65 64 64 63 63 62 62 62 61 61 61 61 60 60 60 60 59 59 59 59 60 60 61 61
69 69 69 69 69 69 68 68 67 67 67 67 67 67 66 66 66 66 66 65 65 64 65 66 66 66 66 66 66 66 67 68 68 67 65 65 66 67 67 65 65 66 66 64 63 64 65 65 65 65 64 64 65 65 66 66 66 66 67 67 66 66 65 65 64 63 63 62 62 62 61 61 61 60 60 60 59 59 59 58 58 58 58 59 59 59
69 69 69 69 69 68 68 68 67 67 67 67 67 67 66 66 66 65 65 65 65 64 64 65 65 65 66 65 65 66 67 68 68 67 65 65 67 68 67 66 66 67 67 65 64 64 65 65 65 65 65 65 65 65 66 66 66 66 66 66 66 66 65 65 64 63 63 62 62 61 61 61 60 60 59 59 58 58 58 57 57 57 57 57 57 58
69 69 69 69 69 68 68 68 67 67 67 67 67 67 66 66 65 65 65 65 65 64 64 64 64 65 65 65 65 66 67 68 68 67 66 66 67 67 67 66 66 67 67 66 65 65 65 65 65 65 65 65 65 65 65 65 66 66 66 65 65 65 65 64 63 63 62 62 61 61 60 60 60 59 59 58 58 57 57 56 56 56 56 56 56 56
69 69 69 69 69 69 68 68 68 67 67 67 67 67 66 66 66 65 65 65 65 64 64 64 64 64 64 65 65 66 67 67 67 67 66 66 66 67 67 67 66 67 67 66 66 66 66 66 66 65 65 65 65 65 65 65 65 65 65 64 64 64 64 63 62 62 62 61 60 60 60 59 59 58 58 58 57 57 56 56 55 55 55 55 54 55
70 70 70 70 69 69 69 69 68 68 67 67 67 67 67 66 66 66 66 65 65 65 64 64 64 64 64 65 66 66 67 67 67 67 66 66 66 67 67 66 66 67 66 66 66 66 65 66 66 65 65 65 65 65 65 65 65 64 64 64 63 63 62 62 61 61 61 60 60 59 59 59 58 58 58 57 57 57 56 56 55 55 55 54 54 54
71 71 71 70 70 70 69 69 69 68 68 68 68 68 68 67 67 67 66 66 66 65 65 64 64 64 64 65 65 66 67 67 67 66 66 66 66 66 66 66 66 66 65 65 66 66 65 65 65 65 65 65 65 65 65 65 64 63 63 63 62 62 61 61 60 60 60 59 59 59 59 58 58 58 58 57 57 57 57 56 56 56 56 55 55 55
72 72 72 71 71 70 70 70 70 69 69 69 69 69 69 68 68 67 67 67 66 66 65 65 65 65 65 65 66 67 67 67 67 66 66 66 66 65 65 65 66 65 64 64 65 65 64 64 65 65 64 64 64 64 64 64 63 62 62 62 61 60 60 60 60 59 59 58 58 58 58 58 58 58 58 57 57 57 57 57 57 57 57 56 56 56
72 72 72 72 71 71 71 71 71 70 70 70 70 70 69 69 69 68 68 67 67 66 65 65 66 66 66 67 67 67 68 67 67 66 66 65 65 64 64 65 65 64 64 64 64 64 63 63 63 64 64 64 64 64 63 63 62 62 62 61 60 59 59 59 59 58 58 58 58 58 57 57 57 57 57 57 57 57 57 57 58 58 57 57 57 57
73 73 73 73 72 72 72 71 71 71 71 71 70 70 70 70 69 69 68 67 67 66 65 65 66 66 67 67 67 67 67 66 66 66 65 64 64 63 63 63 63 64 64 63 63 63 63 63 63 63 63 63 63 63 63 62 62 61 61 61 60 59 59 58 58 57 57 57 57 57 57 57 57 57 57 57 57 57 57 58 58 58 58 58 58 58
74 74 74 73 73 73 72 72 72 72 71 71 71 71 71 70 69 69 68 67 67 66 65 65 65 65 65 65 64 64 64 64 65 65 64 64 63 62 62 61 62 62 62 62 62 62 62 62 62 62 62 62 62 62 62 61 61 61 61 60 59 59 59 58 57 57 57 57 57 57 57 57 57 57 57 57 57 57 57 57 58 58 58 58 58 58
75 74 75 75 74 74 73 73 73 72 72 72 71 71 71 70 70 69 69 68 67 66 65 65 64 64 63 61 60 60 60 61 63 63 64 63 63 61 60 60 60 60 60 60 61 61 61 61 61 61 61 61 61 61 61 61 61 60 60 59 59 60 59 58 57 57 57 57 57 57 56 56 56 56 57 57 57 57 57 57 58 58 58 58 58 58
75 75 76 75 75 75 74 74 74 73 72 72 72 71 71 71 70 69 69 69 68 68 67 65 64 63 61 59 58 57 57 59 60 62 62 63 62 62 60 60 59 59 59 58 59 60 60 60 60 60 60 60 60 59 60 60 60 60 59 59 60 60 59 59 58 58 57 57 57 57 56 56 56 56 57 57 57 57 57 57 57 58 58 58 58 58
76 76 76 75 75 75 75 74 74 73 73 72 72 72 71 71 70 70 70 69 69 68 68 67 65 64 62 61 60 59 58 58 59 59 60 61 61 61 61 60 59 58 57 57 57 58 59 59 59 59 59 59 59 58 59 59 59 59 59 59 59 59 58 59 59 58 57 57 57 57 57 57 57 57 57 57 57 57 57 57 58 58 58 58 58 58
75 75 75 75 75 74 74 74 73 73 73 72 72 71 71 70 70 69 69 69 69 69 68 67 66 65 64 63 63 62 60 59 59 58 58 59 59 60 60 61 60 59 58 57 56 57 57 57 57 58 58 58 57 58 58 58 58 58 58 59 58 58 58 59 59 58 58 58 58 58 57 57 57 57 57 57 57 57 57 58 58 58 58 58 58 58
73 73 73 73 73 73 72 73 73 73 72 71 71 71 70 70 69 68 68 68 68 68 67 67 66 65 65 66 66 65 63 62 60 59 58 58 58 59 60 61 61 60 59 58 57 56 55 55 56 57 57 56 56 56 57 57 57 57 57 58 58 58 59 59 59 58 58 58 58 58 57 57 57 57 57 57 57 57 57 58 58 58 58 58 58 58
69 70 70 70 70 70 71 71 71 71 70 70 70 70 70 69 68 67 67 66 66 65 66 66 65 65 65 66 67 67 66 65 64 62 60 58 58 58 59 60 61 61 61 60 58 56 55 55 55 55 55 55 55 55 55 55 55 55 56 56 57 57 57 58 58 58 58 58 58 58 58 57 57 57 57 57 57 57 57 57 57 58 58 58 58 58
65 65 66 66 67 67 68 69 68 68 68 68 68 68 68 68 68 67 67 67 66 65 64 64 64 64 65 66 66 67 68 68 67 65 63 61 60 59 59 60 61 61 62 61 60 58 56 55 55 54 54 54 54 54 54 54 54 54 54 55 55 55 56 57 57 57 57 57 57 57 57 57 57 57 57 57 57 56 57 57 57 57 57 57 57 57
59 60 61 62 62 63 64 65 65 65 65 66 66 66 66 67 67 67 68 68 67 66 64 64 63 64 65 65 65 66 67 68 68 68 66 65 63 62 61 61 61 61 62 62 61 59 57 56 54 54 53 53 53 53 53 53 53 53 53 53 53 54 54 55 56 56 56 56 56 57 56 56 56 56 56 56 55 55 55 55 55 55 56 56 56 56
54 54 55 57 57 58 60 61 61 62 62 62 62 62 63 64 65 66 67 68 68 67 66 65 64 64 64 64 65 65 65 66 66 67 68 67 66 65 64 62 62 61 61 62 62 60 59 57 55 54 54 53 53 53 53 53 53 53 53 52 52 53 53 54 54 54 54 55 55 55 55 55 55 55 55 54 54 54 54 54 54 54 54 54 54 54
48 49 50 51 52 54 55 57 58 58 59 59 59 59 59 60 62 63 65 66 68 68 68 67 65 64 64 64 64 64 63 63 64 64 65 67 67 67 66 65 63 62 62 62 61 61 59 58 57 56 55 54 54 53 53 53 53 53 53 53 52 52 52 53 53 53 53 53 54 54 54 54 55 54 54 53 53 53 53 53 53 53 54 54 54 54
44 45 46 47 48 49 51 52 54 55 57 57 57 56 56 56 57 59 61 63 65 67 69 68 67 65 63 62 62 62 62 62 62 62 63 64 66 67 67 66 65 64 63 62 61 60 59 57 57 57 57 56 55 54 54 54 54 53 53 53 53 53 53 53 53 53 53 53 53 53 53 53 53 53 53 53 53 53 52 52 53 53 54 54 54 55
Wind_Direction
259 259 259 259 259 259 259 259 259 259 259 259 259 260 260 260 260 260 261 261 261 261 261 262 262 262 263 263 264 264 264 265 265 265 266 267 267 268 269 269 270 270 270 270 270 270 269 269 268 268 267 267 267 268 268 268 268 269 269 269 269 269 269 270 270 271 272 273 274 274 275 276 276 276 276 276 276 275 274 273 272 271 271 271 271 271
260 259 259 259 259 259 259 259 259 259 259 259 260 260 260 260 261 261 261 261 261 262 262 262 262 262 262 263 263 263 264 264 265 265 265 266 266 267 268 268 269 270 270 271 271 271 271 271 271 270 269 269 269 269 268 268 269 269 269 268 268 268 268 269 269 270 271 272 273 274 275 275 276 276 276 275 275 274 273 271 270 270 269 269 270 270
260 260 260 259 259 259 259 259 259 259 259 260 260 260 260 261 261 261 262 262 262 262 263 263 263 263 263 263 263 264 264 264 264 265 265 265 266 266 267 267 268 269 269 270 271 271 272 272 272 272 272 271 271 270 270 270 270 269 269 269 269 268 268 268 268 269 270 271 272 273 274 275 275 275 275 274 273 272 271 270 269 268 268 268 269 269
261 261 260 260 260 260 259 259 259 259 259 260 260 260 261 261 262 262 263 263 264 264 264 264 265 265 265 265 265 265 265 265 265 265 265 266 266 266 266 267 267 268 268 269 269 270 271 271 272 272 272 272 272 272 272 271 271 271 271 270 270 269 269 269 268 268 269 270 271 272 273 274 274 274 274 273 272 270 269 268 267 267 267 267 268 269
262 262 261 261 260 260 260 260 259 259 259 260 260 261 262 262 263 264 264 265 265 266 266 267 267 267 267 267 267 267 267 267 267 267 267 267 267 267 267 267 267 267 267 268 268 269 269 270 271 271 272 272 272 272 272 272 272 272 272 271 271 271 270 270 270 269 269 269 270 270 271 272 273 273 273 272 270 269 268 267 266 266 266 266 267 268
262 262 262 262 261 261 261 260 260 260 260 261 261 262 262 263 264 265 265 266 267 268 268 269 269 269 269 270 270 270 270 270 270 270 270 270 269 269 269 269 269 268 268 268 268 268 268 269 269 270 270 271 272 272 272 272 272 272 272 272 272 271 271 271 270 270 270 270 270 270 270 271 271 271 271 270 269 267 266 266 265 265 266 266 267 267
262 262 262 262 262 262 262 261 261 261 261 262 262 262 263 264 265 266 266 267 268 269 269 270 270 271 271 271 272 272 272 272 272 272 272 272 272 272 272 271 271 271 270 270 269 269 269 269 269 269 269 270 270 271 271 271 271 271 272 272 271 271 271 271 270 270 270 270 270 270 270 270 270 270 269 269 267 266 265 265 265 265 265 266 267 267
262 262 262 263 263 263 262 262 262 262 262 263 263 263 264 265 265 266 267 268 269 269 270 271 271 271 272 272 272 273 273 273 273 273 274 274 274 274 274 274 274 274 273 273 272 272 271 271 270 270 270 270 270 270 270 270 271 271 271 271 271 271 271 270 270 270 269 269 269 269 269 269 269 269 268 267 267 266 265 265 265 265 266 266 267 267
262 262 262 262 263 263 263 263 263 263 263 264 264 264 265 265 266 267 267 268 269 270 270 271 271 272 272 273 273 273 274 274 274 274 274 275 275 275 275 276 276 276 276 276 275 275 274 273 273 272 272 271 271 271 270 270 270 271 271 271 271 271 271 270 269 269 268 268 268 268 268 268 268 267 267 266 266 265 265 265 265 265 266 267 267 267
262 262 263 263 263 263 264 264 263 263 264 264 265 265 265 266 266 267 268 268 269 269 270 271 271 272 272 273 273 274 274 274 274 275 275 275 275 276 276 276 277 277 277 277 278 277 277 277 276 275 275 274 273 273 272 272 271 271 271 272 272 271 271 271 270 269 268 267 267 267 266 266 266 266 266 265 265 264 264 264 265 265 266 267 267 267
263 263 263 263 263 263 263 264 264 264 264 264 265 265 266 266 267 267 268 268 269 269 270 270 271 272 272 273 273 273 274 274 275 275 275 275 276 276 276 277 277 277 278 278 278 279 279 279 279 278 278 277 277 276 275 274 274 273 273 273 273 273 272 272 271 270 269 268 267 267 266 265 265 264 264 264 264 263 263 264 264 265 266 267 267 267
263 263 263 263 263 263 263 263 264 264 264 265 265 266 266 266 267 267 268 268 269 269 270 270 271 271 272 272 273 273 273 274 274 275 275 275 276 276 276 277 277 277 278 278 279 279 279 280 280 280 280 280 280 279 278 278 277 276 275 275 275 274 274 273 273 272 271 270 269 268 267 266 265 264 264 263 263 263 263 262 263 263 264 266 267 267
264 264 264 264 264 264 264 264 264 264 264 265 265 266 266 266 266 267 267 268 269 269 270 270 270 271 271 272 272 273 273 273 274 274 275 275 275 276 276 276 277 277 277 278 278 279 279 280 280 280 281 281 281 281 281 281 280 279 278 278 277 277 276 276 275 274 273 272 271 269 268 267 266 265 264 264 263 263 262 262 262 262 263 264 265 266
264 264 265 265 265 265 264 264 264 264 264 265 265 265 265 266 266 266 267 267 268 268 269 270 270 270 271 271 272 272 273 273 274 274 274 274 275 275 276 276 276 276 277 277 278 278 278 279 279 280 280 281 281 282 282 282 282 282 281 281 280 280 279 278 278 277 276 275 274 272 270 268 267 267 266 266 265 265 264 263 263 263 263 264 265 266
265 265 265 266 266 265 265 265 265 265 265 265 265 265 265 266 266 266 266 267 267 267 268 269 269 270 270 271 271 272 272 273 273 274 274 274 274 275 275 275 276 276 276 277 277 277 278 278 278 279 279 280 280 281 281 282 282 282 283 282 282 282 281 281 280 280 279 279 277 275 273 272 271 270 270 269 269 268 267 266 266 265 265 266 267 267
266 266 266 266 266 266 266 266 266 266 265 265 265 265 266 266 266 266 266 266 266 267 267 268 268 269 269 270 270 271 271 272 272 273 273 274 274 275 275 275 275 275 276 276 276 277 277 277 278 278 278 279 279 279 280 280 281 281 282 282 282 282 282 282 281 281 281 280 279 278 277 276 275 274 274 273 272 272 271 270 270 269 269 270 270 270
267 267 267 267 267 267 266 266 266 266 266 266 266 266 266 266 266 266 266 266 266 266 267 267 267 268 268 269 269 270 270 271 272 272 273 273 274 274 275 275 275 275 276 276 276 276 277 277 277 277 278 278 278 278 278 278 279 279 279 280 280 281 281 281 280 280 280 280 279 278 278 277 277 277 276 276 275 274 274 273 273 273 272 273 273 273
268 268 268 268 268 268 267 267 267 267 267 267 267 267 266 266 266 266 266 266 266 267 266 266 266 267 267 268 268 269 269 270 271 271 272 272 273 273 274 274 275 275 276 276 276 276 276 277 277 277 277 277 277 278 278 277 277 277 278 278 278 278 278 278 278 278 278 277 277 276 275 275 275 275 275 275 275 275 275 274 274 274 273 273 273 273
268 268 269 269 269 269 269 268 268 268 268 268 268 268 268 267 267 267 267 267 267 267 267 267 267 266 267 267 267 268 268 269 269 270 271 271 272 272 273 274 274 275 275 275 276 276 276 277 277 277 277 277 277 277 277 277 277 277 277 276 276 276 276 276 276 276 276 275 274 274 273 272 271 271 271 271 272 272 272 272 272 272 272 271 271 271
269 269 269 270 270 270 270 270 269 269 269 269 269 269 269 268 268 268 268 267 267 267 267 267 267 267 267 267 267 267 267 268 268 269 270 270 271 271 272 272 273 274 274 275 275 276 276 276 276 276 277 277 277 277 277 277 277 277 276 276 276 275 275 274 274 274 274 273 273 272 272 271 270 269 268 268 269 269 269 269 269 269 268 268 267 267
270 270 270 270 270 271 271 270 270 270 270 270 270 269 269 269 269 268 268 268 268 267 267 267 267 267 267 267 267 267 267 267 268 268 268 269 270 270 271 271 272 272 273 274 274 275 275 275 275 276 276 276 276 277 277 277 276 276 276 276 275 275 274 274 273 272 272 272 272 272 271 271 270 269 269 268 268 268 268 267 267 266 265 265 264 264
271 270 270 270 271 271 271 271 271 271 271 271 270 270 270 269 269 269 268 268 268 268 268 267 267 267 267 267 267 267 267 267 267 267 268 268 269 269 269 270 270 271 272 272 273 273 274 274 274 275 275 275 275 276 276 276 276 276 275 275 275 275 274 274 273 272 272 271 271 271 271 271 270 270 270 269 269 269 268 268 267 266 265 263 262 262
271 271 271 271 271 271 271 271 271 272 271 271 271 270 270 270 270 269 269 268 268 268 268 267 267 267 267 267 267 267 267 267 267 267 267 267 268 268 268 269 269 270 271 271 272 272 273 273 273 273 274 274 274 274 274 274 275 274 274 274 274 274 274 273 273 272 272 271 271 270 270 270 270 270 269 269 269 269 269 269 268 267 266 265 263 262
271 271 271 271 271 271 271 271 272 272 272 271 271 271 271 270 270 270 269 269 269 268 268 268 268 267 267 267 267 267 267 267 267 267 267 267 267 267 268 268 268 269 269 270 270 271 271 272 272 272 272 272 273 273 273 273 273 273 273 273 273 273 273 272 272 272 271 271 270 270 270 270 270 269 269 269 269 269 269 269 269 269 268 267 266 265
271 271 271 271 271 271 271 271 271 272 272 272 271 271 271 271 271 270 270 270 269 269 269 268 268 267 267 267 267 267 267 267 267 267 267 266 266 267 267 267 267 268 268 269 269 270 270 270 271 271 271 271 271 271 272 272 272 272 272 272 271 271 271 271 271 271 271 270 270 270 270 270 269 269 268 268 268 268 269 269 269 269 269 269 268 267
271 271 271 271 271 271 271 271 271 272 272 272 271 271 271 271 270 270 270 270 270 269 269 268 268 268 267 267 267 267 267 267 267 266 266 266 266 266 267 267 267 267 267 268 268 268 269 269 269 270 270 270 270 270 270 270 270 270 270 270 270 270 270 270 270 270 270 270 269 269 269 269 269 269 269 268 268 268 268 268 269 269 269 270 269 269
271 271 271 271 271 271 271 271 271 271 271 271 271 271 271 270 270 270 270 270 269 269 269 269 268 268 267 267 267 267 267 267 267 266 266 266 266 266 266 266 266 266 266 267 267 267 268 268 268 268 269 269 269 269 269 269 269 269 269 269 269 269 269 269 269 269 269 269 269 269 269 269 269 269 269 269 268 268 268 268 268 269 269 269 270 270
270 270 270 270 270 270 271 271 271 271 271 271 271 270 270 270 270 270 270 269 269 269 269 268 268 268 267 267 267 267 267 267 266 266 266 266 266 266 266 266 266 266 266 266 266 266 267 267 267 267 267 267 268 268 268 268 268 268 268 268 268 268 268 268 268 268 268 268 268 268 268 268 269 269 269 269 269 268 268 268 268 268 268 269 269 270
269 269 269 270 270 270 270 270 270 270 270 270 270 270 270 269 269 269 269 269 269 269 268 268 268 267 267 267 267 266 266 266 266 266 265 265 265 265 265 265 265 265 265 265 265 266 266 266 266 266 266 266 266 266 267 267 267 267 267 268 268 267 267 267 267 267 267 267 267 267 268 268 268 269 269 269 269 269 268 268 268 268 268 268 269 269
268 268 268 269 269 269 269 269 269 269 269 269 269 269 269 268 268 268 268 268 268 268 268 268 267 267 267 266 266 266 266 266 265 265 265 265 265 265 265 265 264 264 264 264 264 265 265 265 265 265 265 265 265 265 265 266 266 266 266 267 267 267 267 267 267 267 266 266 266 267 267 267 268 268 269 269 269 269 269 269 268 268 268 268 268 269
267 267 267 267 268 268 268 268 268 268 268 268 268 268 268 267 267 267 267 268 268 267 267 267 267 267 266 266 265 265 265 265 265 264 264 264 264 264 264 264 264 264 264 263 263 263 264 264 264 264 264 264 264 264 264 265 265 265 266 266 266 266 266 266 266 266 266 266 266 266 266 267 267 268 268 269 269 269 269 269 269 269 268 268 268 269
266 266 266 266 267 267 267 267 267 267 267 267 267 267 267 267 267 267 267 267 267 267 267 267 266 266 266 265 265 264 264 264 264 264 264 263 263 263 263 263 263 263 263 263 262 262 262 263 263 263 263 263 263 263 264 264 264 264 265 265 265 265 266 266 266 266 266 266 266 266 266 266 267 267 268 268 269 269 269 269 269 269 269 268 269 269
265 265 265 265 266 266 266 266 266 266 266 266 266 266 266 266 266 266 266 266 267 267 267 266 266 266 265 265 264 264 263 264 263 263 263 262 262 263 263 263 262 262 262 262 262 261 261 262 262 262 262 262 262 262 262 263 263 263 263 264 264 265 265 265 265 265 265 266 266 266 266 266 267 267 267 268 268 269 269 269 269 269 269 269 269 269
264 264 264 264 265 265 265 265 265 265 265 266 266 266 266 266 266 266 266 266 267 267 267 266 266 265 265 264 263 263 263 263 262 262 262 262 262 262 262 262 262 262 262 261 261 261 261 261 261 261 261 261 261 261 261 261 262 262 263 263 264 264 265 265 265 265 265 266 266 266 266 266 266 267 267 267 268 268 268 269 269 269 269 269 269 269
263 263 263 263 264 264 264 264 264 264 264 265 265 265 265 266 266 266 266 266 267 267 268 267 266 266 265 264 263 262 262 262 261 261 261 261 261 261 261 261 261 261 261 261 261 261 260 260 260 260 260 260 260 260 260 261 261 261 262 263 263 264 264 265 265 265 265 266 266 266 266 266 266 266 267 267 267 268 268 268 268 268 269 269 269 269
263 263 263 263 263 263 263 263 263 263 263 264 264 264 265 265 265 266 266 266 267 267 268 268 267 266 265 264 263 262 261 261 260 260 260 260 260 260 261 261 261 261 261 261 260 260 260 260 260 260 260 260 260 260 260 260 260 261 262 262 263 264 264 264 265 265 265 265 266 266 266 266 266 266 266 267 267 267 267 268 268 268 268 268 269 269
262 262 262 262 262 262 262 262 262 262 262 263 263 264 264 264 265 265 265 266 266 267 267 267 267 266 265 263 262 261 260 260 260 260 260 259 259 260 260 260 260 260 260 260 260 260 260 260 260 260 260 260 260 260 260 260 260 261 261 262 263 263 264 264 264 265 265 265 265 265 266 266 266 266 266 266 267 267 267 267 268 268 268 268 269 269
262 262 262 262 261 261 261 261 261 262 262 262 262 263 263 263 264 264 265 265 266 266 267 267 266 265 264 263 262 261 260 259 259 259 259 259 259 259 260 260 260 260 260 260 260 260 260 260 260 260 260 260 260 260 260 260 260 261 261 261 262 263 263 264 264 264 264 265 265 265 265 266 266 266 266 267 267 267 267 268 268 268 268 269 269 269
262 262 261 261 261 261 261 261 261 261 261 261 262 262 262 262 263 263 264 264 265 265 265 265 265 264 264 263 262 261 260 260 259 259 259 259 259 259 259 260 260 260 260 260 260 260 261 261 261 261 261 261 261 261 261 261 261 261 261 261 262 262 263 263 264 264 264 264 264 265 265 265 266 266 266 267 267 268 268 268 268 269 269 269 270 270
262 261 261 261 261 261 261 261 260 260 261 261 261 261 261 261 262 262 262 262 263 263 263 263 263 262 262 262 262 262 261 261 260 260 259 259 259 259 259 260 260 260 260 260 260 260 261 261 261 261 261 261 262 262 262 262 261 261 261 262 262 262 262 263 263 263 264 264 264 265 265 265 265 266 266 267 267 268 268 269 269 269 270 270 271 271
262 262 261 261 261 261 260 260 260 260 260 260 260 260 260 260 260 260 260 261 261 261 261 260 259 259 259 260 260 260 261 261 261 261 261 260 260 259 259 259 260 260 260 261 261 261 261 261 261 261 261 262 262 262 262 262 262 262 262 262 262 262 262 262 263 263 263 264 264 264 265 265 265 266 266 267 267 268 268 269 269 270 270 270 271 271
262 262 261 261 261 261 260 260 260 260 260 260 260 260 259 259 259 259 259 259 259 259 258 256 255 254 254 254 255 256 257 259 260 261 261 261 261 261 260 260 260 260 260 261 261 261 261 261 261 261 262 262 262 262 263 263 263 263 263 263 263 263 263 263 263 263 264 264 264 264 265 265 265 266 266 267 267 267 268 269 269 270 270 271 271 271
262 262 261 261 261 261 260 260 260 260 259 259 259 259 259 258 258 258 257 257 257 256 256 254 252 250 248 248 249 251 252 254 256 258 259 261 262 262 262 261 261 260 260 261 261 261 261 261 261 261 262 262 262 262 263 263 263 264 264 264 264 264 264 264 263 263 264 264 265 265 265 265 266 266 266 267 267 268 268 269 269 270 270 271 271 272
262 262 261 261 261 261 260 260 259 259 259 258 258 258 258 257 257 256 256 255 255 254 253 252 251 248 246 244 244 246 247 249 251 253 256 258 260 262 263 263 262 261 261 261 261 261 261 261 261 261 261 262 262 262 263 263 264 264 264 264 264 265 265 264 264 264 265 265 265 265 266 266 266 267 267 267 268 268 268 269 269 270 270 271 271 272
261 261 261 261 260 260 259 259 259 258 258 257 257 256 256 255 254 254 253 253 253 253 252 251 250 248 245 243 242 242 244 245 247 249 251 254 257 259 261 262 263 263 262 261 261 261 261 261 261 261 261 261 262 262 262 263 264 264 264 265 265 265 265 265 265 265 265 265 265 266 266 266 267 267 268 268 268 268 269 269 270 270 270 271 271 272
261 260 260 259 259 258 258 258 257 256 256 255 254 254 253 252 251 250 249 249 249 250 250 250 249 248 246 244 242 241 242 243 244 246 248 250 253 255 258 260 262 263 263 263 262 261 261 261 261 261 261 261 261 261 262 263 263 264 264 265 265 265 265 266 266 266 266 266 266 266 266 267 267 268 268 268 269 269 269 269 270 270 271 271 271 272
259 259 258 258 257 256 256 255 255 254 253 252 251 251 250 249 247 246 245 244 244 245 246 247 248 249 248 247 245 243 242 242 243 244 246 247 249 251 254 257 259 261 263 263 263 262 262 261 261 261 261 261 261 261 262 262 263 263 264 264 265 265 265 266 266 266 266 266 266 267 267 267 267 268 268 268 269 269 269 270 270 270 271 271 271 272
258 257 257 256 255 254 253 253 251 250 249 248 248 247 247 246 244 243 241 240 240 240 241 242 244 246 248 248 248 246 245 244 244 244 245 246 247 249 251 253 256 259 261 262 263 262 262 261 261 261 261 261 261 261 262 262 263 263 264 264 265 265 265 265 266 266 266 266 266 267 267 267 267 268 268 268 269 269 270 270 270 271 271 271 271 272
257 257 256 255 254 253 251 250 249 247 246 245 244 244 244 244 243 242 240 238 237 236 236 238 240 242 245 247 248 249 248 248 247 246 245 245 246 247 248 251 253 256 258 260 261 262 261 261 261 260 260 261 261 262 262 263 263 263 264 265 265 265 265 265 266 266 266 266 266 267 267 267 267 267 268 268 269 269 270 270 271 271 271 271 272 272
258 257 256 255 254 252 251 249 247 245 243 242 241 241 242 243 243 243 241 239 236 234 234 235 237 239 242 243 245 247 249 250 250 249 247 246 245 246 247 249 251 254 256 258 259 260 261 261 261 261 260 261 261 262 263 264 264 264 265 265 265 265 265 266 266 266 266 266 266 267 267 267 267 268 268 269 269 269 270 271 272 272 272 272 272 272
260 259 258 256 255 253 252 250 247 244 242 240 239 239 241 243 244 244 243 241 237 234 233 233 235 238 240 241 243 245 247 249 250 251 250 248 247 246 246 247 249 251 254 255 257 258 259 260 261 261 261 261 261 262 263 264 265 265 265 265 265 265 265 265 266 266 266 266 266 267 267 267 268 268 268 269 269 270 271 271 272 273 273 273 274 273
Height
5638 5639 5640 5640 5641 5641 5642 5642 5642 5643 5643 5643 5644 5644 5644 5644 5644 5645 5645 5645 5646 5646 5646 5647 5647 5647 5647 5647 5647 5647 5648 5648 5648 5648 5648 5648 5648 5648 5648 5649 5649 5649 5649 5649 5649 5650 5650 5650 5650 5651 5651 5651 5651 5651 5651 5651 5652 5652 5652 5652 5652 5653 5653 5653 5653 5653 5653 5653 5653 5653 5653 5653 5652 5652 5652 5652 5652 5652 5652 5652 5652 5652 5652 5651 5651 5651
5634 5635 5636 5636 5637 5637 5637 5638 5639 5639 5639 5640 5640 5640 5640 5641 5641 5641 5642 5642 5642 5642 5642 5643 5643 5643 5644 5644 5644 5644 5644 5644 5645 5645 5645 5645 5645 5645 5645 5645 5645 5646 5646 5646 5646 5646 5646 5646 5647 5647 5647 5647 5647 5647 5647 5648 5648 5648 5648 5648 5649 5649 5649 5650 5650 5650 5650 5650 5649 5649 5649 5649 5649 5649 5648 5648 5648 5648 5648 5647 5647 5647 5647 5647 5647 5647
5631 5631 5632 5632 5633 5634 5634 5634 5635 5635 5636 5636 5636 5637 5637 5637 5637 5637 5638 5638 5638 5638 5639 5639 5640 5640 5640 5640 5641 5641 5641 5641 5641 5641 5641 5642 5642 5642 5642 5642 5642 5642 5642 5642 5642 5643 5643 5643 5643 5643 5643 5643 5643 5644 5644 5644 5644 5644 5644 5644 5645 5645 5645 5646 5646 5646 5646 5646 5646 5646 5646 5645 5645 5645 5645 5645 5645 5645 5644 5644 5644 5644 5644 5644 5643 5643
5627 5627 5627 5628 5629 5630 5630 5630 5631 5632 5632 5632 5632 5633 5633 5633 5634 5634 5634 5634 5635 5635 5635 5636 5636 5636 5637 5637 5637 5637 5637 5637 5637 5638 5638 5638 5638 5638 5638 5638 5638 5638 5639 5639 5639 5639 5639 5640 5640 5640 5640 5640 5640 5640 5640 5640 5640 5640 5640 5641 5641 5641 5641 5642 5642 5642 5642 5642 5642 5642 5642 5642 5642 5642 5642 5642 5642 5641 5641 5641 5641 5641 5640 5640 5639 5639
5622 5623 5623 5624 5625 5626 5626 5627 5627 5627 5628 5628 5629 5629 5630 5630 5630 5630 5631 5631 5631 5631 5632 5632 5632 5633 5633 5633 5634 5634 5634 5634 5634 5634 5634 5634 5634 5634 5634 5635 5635 5635 5635 5635 5636 5636 5636 5636 5636 5636 5636 5636 5636 5637 5637 5637 5637 5637 5637 5637 5637 5637 5637 5637 5637 5638 5638 5638 5638 5639 5638 5638 5638 5638 5638 5638 5638 5638 5638 5637 5637 5637 5637 5636 5636 5636
5618 5619 5619 5620 5621 5621 5622 5623 5623 5624 5624 5625 5625 5626 5626 5626 5627 5627 5627 5627 5627 5628 5628 5628 5629 5629 5629 5630 5630 5630 5630 5631 5631 5631 5631 5631 5631 5631 5631 5631 5631 5631 5631 5632 5632 5632 5632 5632 5632 5633 5633 5633 5633 5633 5633 5633 5633 5633 5633 5633 5633 5633 5633 5633 5633 5633 5634 5634 5634 5635 5635 5635 5635 5635 5634 5634 5634 5634 5634 5634 5634 5633 5633 5633 5633 5632
5614 5615 5615 5616 5617 5617 5618 5619 5619 5620 5620 5621 5621 5622 5622 5622 5623 5623 5623 5624 5624 5624 5624 5625 5625 5625 5626 5626 5626 5627 5627 5627 5627 5627 5627 5627 5627 5627 5627 5627 5627 5627 5627 5627 5628 5628 5628 5628 5628 5629 5629 5629 5629 5629 5629 5629 5629 5629 5629 5629 5629 5629 5629 5629 5629 5630 5630 5630 5630 5631 5631 5631 5631 5631 5631 5631 5631 5631 5631 5630 5630 5630 5630 5630 5629 5629
5610 5610 5611 5612 5612 5613 5614 5614 5615 5616 5617 5617 5617 5618 5618 5619 5619 5619 5620 5620 5620 5621 5621 5621 5621 5622 5622 5622 5622 5623 5623 5623 5623 5624 5624 5624 5624 5624 5624 5624 5624 5624 5624 5624 5624 5624 5624 5624 5624 5625 5625 5625 5625 5625 5625 5625 5625 5625 5625 5625 5626 5626 5626 5626 5626 5626 5626 5626 5626 5627 5627 5627 5627 5627 5627 5627 5627 5627 5627 5627 5627 5627 5626 5626 5626 5626
5605 5605 5607 5607 5608 5609 5610 5610 5611 5612 5612 5612 5613 5614 5614 5615 5615 5616 5616 5617 5617 5617 5617 5617 5617 5618 5618 5618 5619 5619 5619 5620 5620 5620 5620 5620 5620 5620 5620 5620 5620 5620 5620 5620 5620 5620 5620 5620 5620 5621 5621 5621 5621 5621 5621 5621 5621 5621 5621 5622 5622 5622 5622 5622 5622 5622 5622 5622 5622 5622 5623 5623 5623 5623 5624 5624 5624 5623 5623 5623 5623 5623 5623 5623 5622 5622
5600 5601 5602 5602 5603 5604 5605 5605 5606 5607 5608 5608 5608 5609 5610 5611 5611 5612 5612 5613 5613 5613 5614 5614 5614 5614 5614 5615 5615 5615 5616 5616 5616 5616 5617 5617 5617 5617 5617 5617 5617 5617 5617 5617 5617 5617 5617 5617 5617 5617 5617 5616 5617 5617 5617 5617 5617 5617 5617 5617 5617 5617 5617 5617 5618 5618 5618 5618 5618 5618 5619 5619 5619 5619 5620 5620 5620 5620 5620 5619 5619 5619 5619 5619 5619 5619
5596 5597 5597 5598 5599 5600 5601 5601 5601 5602 5603 5604 5604 5605 5606 5607 5607 5607 5608 5608 5608 5609 5610 5610 5610 5610 5611 5611 5611 5612 5612 5612 5612 5612 5613 5613 5613 5613 5613 5613 5613 5613 5613 5613 5613 5613 5613 5613 5613 5613 5613 5612 5612 5612 5612 5612 5612 5612 5613 5613 5613 5613 5613 5613 5613 5613 5614 5614 5614 5614 5614 5615 5615 5615 5615 5616 5616 5616 5616 5616 5616 5616 5615 5616 5616 5616
5591 5592 5593 5593 5594 5595 5596 5596 5597 5597 5599 5599 5600 5600 5601 5602 5603 5603 5603 5603 5604 5605 5606 5606 5606 5606 5607 5607 5607 5608 5608 5608 5608 5609 5609 5609 5609 5609 5610 5610 5610 5610 5610 5610 5610 5610 5610 5610 5610 5609 5609 5609 5609 5608 5608 5608 5608 5608 5608 5609 5609 5609 5609 5609 5609 5609 5609 5610 5610 5610 5610 5610 5611 5611 5611 5611 5611 5611 5612 5612 5612 5612 5612 5612 5612 5612
5587 5587 5588 5589 5589 5590 5591 5591 5592 5593 5594 5594 5595 5595 5596 5597 5598 5599 5599 5599 5600 5601 5601 5602 5602 5602 5602 5603 5603 5604 5604 5604 5605 5605 5605 5606 5606 5606 5606 5606 5606 5606 5607 5607 5607 5607 5607 5607 5607 5606 5606 5606 5605 5605 5605 5605 5604 5604 5604 5604 5605 5605 5605 5605 5605 5605 5605 5606 5606 5606 5606 5606 5606 5606 5607 5607 5607 5607 5607 5607 5607 5607 5607 5608 5608 5608
5582 5583 5584 5584 5584 5585 5586 5587 5587 5588 5589 5589 5590 5591 5591 5592 5594 5595 5595 5595 5595 5596 5597 5597 5597 5597 5598 5598 5599 5599 5600 5600 5601 5601 5602 5602 5602 5602 5602 5602 5602 5602 5603 5603 5603 5603 5603 5603 5603 5603 5603 5603 5602 5602 5602 5601 5601 5601 5601 5601 5601 5601 5601 5601 5601 5601 5601 5601 5602 5602 5602 5602 5602 5602 5602 5602 5602 5602 5602 5602 5602 5603 5603 5603 5603 5603
5578 5579 5580 5580 5580 5580 5581 5582 5583 5583 5584 5585 5586 5586 5587 5588 5589 5590 5590 5590 5590 5591 5592 5593 5593 5593 5593 5594 5594 5595 5596 5596 5597 5597 5597 5597 5597 5598 5599 5599 5598 5599 5599 5599 5599 5599 5600 5600 5600 5600 5600 5600 5599 5599 5599 5598 5598 5598 5598 5597 5597 5597 5597 5597 5597 5597 5597 5597 5597 5597 5597 5598 5598 5598 5598 5598 5598 5598 5598 5598 5598 5598 5598 5598 5598 5599
5573 5575 5575 5575 5575 5576 5577 5578 5578 5579 5579 5580 5581 5582 5582 5583 5583 5584 5585 5585 5586 5587 5588 5588 5588 5588 5589 5589 5590 5590 5591 5592 5592 5593 5594 5593 5593 5594 5595 5595 5594 5594 5595 5596 5595 5595 5596 5596 5596 5596 5596 5596 5596 5596 5596 5596 5595 5595 5595 5595 5594 5594 5594 5594 5594 5593 5593 5594 5594 5594 5594 5594 5594 5594 5594 5594 5594 5594 5594 5594 5594 5594 5594 5594 5594 5594
5569 5570 5570 5570 5571 5572 5572 5573 5574 5575 5575 5576 5577 5577 5578 5578 5578 5579 5581 5581 5581 5582 5583 5583 5583 5583 5584 5584 5585 5586 5587 5587 5588 5588 5589 5590 5589 5589 5591 5591 5590 5590 5591 5592 5592 5592 5592 5592 5592 5592 5592 5592 5592 5592 5592 5592 5592 5592 5592 5592 5591 5591 5591 5591 5590 5590 5590 5590 5591 5591 5591 5591 5591 5590 5590 5591 5591 5591 5590 5590 5590 5590 5590 5590 5590 5590
5564 5565 5565 5566 5566 5567 5567 5568 5570 5571 5571 5572 5572 5572 5573 5573 5574 5575 5576 5576 5577 5577 5577 5578 5579 5579 5579 5580 5581 5582 5582 5583 5583 5584 5585 5585 5585 5585 5586 5587 5586 5586 5587 5587 5587 5587 5588 5588 5588 5588 5588 5588 5588 5588 5588 5588 5588 5588 5589 5588 5588 5588 5588 5587 5587 5587 5587 5587 5587 5587 5588 5588 5587 5587 5587 5587 5587 5587 5587 5587 5587 5587 5587 5587 5587 5587
5558 5559 5560 5561 5561 5562 5562 5564 5565 5566 5567 5567 5567 5568 5568 5569 5570 5570 5571 5571 5572 5572 5573 5573 5574 5575 5575 5576 5576 5576 5578 5579 5579 5579 5580 5581 5581 5581 5582 5582 5582 5582 5582 5583 5583 5583 5584 5584 5584 5584 5584 5584 5584 5584 5584 5584 5585 5585 5585 5585 5585 5585 5585 5584 5584 5584 5584 5584 5584 5584 5585 5585 5585 5585 5585 5585 5585 5584 5584 5584 5584 5584 5584 5584 5584 5584
5553 5554 5555 5556 5556 5556 5557 5559 5560 5561 5562 5562 5562 5563 5564 5564 5564 5566 5566 5567 5567 5568 5568 5569 5569 5570 5570 5571 5571 5572 5573 5575 5575 5575 5576 5576 5576 5577 5577 5578 5578 5578 5578 5578 5578 5579 5580 5580 5580 5580 5580 5580 5580 5580 5580 5580 5580 5581 5581 5581 5581 5581 5581 5581 5581 5581 5581 5581 5581 5581 5581 5582 5582 5582 5582 5582 5582 5582 5582 5581 5581 5581 5581 5581 5581 5581
5548 5549 5550 5551 5551 5552 5552 5553 5554 5556 5557 5557 5557 5558 5558 5558 5559 5561 5561 5562 5562 5563 5564 5565 5565 5565 5566 5567 5567 5567 5568 5570 5571 5571 5571 5572 5572 5572 5573 5574 5574 5574 5574 5574 5574 5575 5576 5576 5576 5576 5576 5576 5576 5576 5576 5576 5576 5576 5576 5577 5577 5577 5577 5577 5577 5577 5577 5577 5577 5577 5577 5578 5578 5578 5578 5578 5578 5578 5578 5578 5578 5578 5578 5578 5578 5578
5543 5544 5544 5545 5546 5547 5547 5548 5549 5550 5551 5552 5552 5553 5553 5553 5554 5556 5556 5557 5558 5558 5559 5560 5560 5560 5561 5562 5562 5562 5563 5566 5567 5566 5566 5567 5567 5567 5567 5569 5570 5570 5569 5569 5570 5571 5572 5572 5571 5572 5572 5572 5572 5572 5572 5572 5572 5572 5572 5572 5572 5572 5572 5572 5573 5573 5573 5573 5573 5573 5573 5574 5574 5574 5574 5574 5574 5574 5574 5574 5575 5575 5575 5575 5575 5575
5537 5538 5539 5540 5541 5542 5542 5542 5544 5545 5546 5546 5547 5547 5547 5548 5549 5550 5551 5552 5553 5554 5554 5555 5555 5556 5557 5557 5557 5557 5558 5560 5561 5561 5562 5563 5562 5562 5562 5565 5566 5565 5565 5565 5566 5567 5567 5567 5567 5567 5568 5568 5568 5568 5568 5568 5568 5568 5568 5568 5568 5568 5568 5568 5568 5568 5568 5569 5569 5569 5569 5570 5570 5570 5570 5570 5570 5570 5570 5570 5570 5570 5571 5571 5571 5571
5532 5532 5533 5534 5536 5536 5537 5537 5538 5539 5540 5541 5541 5541 5542 5543 5544 5545 5545 5546 5548 5548 5549 5550 5551 5552 5552 5552 5552 5553 5554 5555 5556 5557 5558 5558 5557 5557 5558 5561 5561 5561 5560 5560 5561 5562 5562 5562 5562 5563 5563 5564 5564 5564 5564 5564 5564 5564 5564 5564 5564 5564 5564 5564 5564 5564 5564 5564 5564 5565 5565 5565 5565 5566 5566 5566 5566 5566 5565 5565 5565 5566 5566 5566 5566 5566
5526 5527 5527 5529 5530 5531 5532 5532 5533 5534 5534 5535 5536 5536 5537 5537 5538 5539 5540 5541 5542 5543 5544 5545 5546 5546 5546 5547 5548 5549 5549 5549 5551 5552 5553 5553 5552 5552 5554 5556 5557 5556 5555 5555 5557 5558 5558 5558 5558 5558 5559 5559 5559 5559 5560 5560 5560 5560 5560 5560 5560 5560 5560 5560 5560 5560 5560 5560 5560 5560 5560 5560 5561 5561 5561 5561 5561 5561 5561 5561 5561 5561 5561 5561 5561 5561
5520 5521 5522 5523 5524 5525 5526 5527 5527 5528 5529 5530 5530 5531 5531 5532 5533 5534 5535 5536 5537 5538 5538 5540 5540 5540 5540 5542 5544 5545 5544 5544 5546 5547 5548 5547 5547 5548 5549 5550 5552 5552 5551 5551 5552 5553 5553 5553 5553 5553 5554 5554 5554 5555 5555 5555 5555 5555 5555 5556 5556 5556 5556 5556 5555 5555 5555 5555 5555 5556 5556 5556 5556 5556 5556 5556 5557 5557 5557 5556 5556 5556 5556 5556 5556 5556
5514 5515 5516 5517 5518 5520 5521 5521 5522 5523 5523 5524 5525 5525 5526 5527 5528 5529 5530 5530 5531 5532 5533 5534 5535 5535 5535 5537 5539 5539 5538 5539 5541 5542 5542 5543 5543 5543 5543 5544 5546 5547 5547 5546 5547 5548 5549 5548 5548 5549 5549 5550 5550 5550 5550 5550 5550 5551 5551 5551 5551 5551 5551 5551 5551 5551 5551 5551 5551 5551 5551 5551 5551 5551 5551 5551 5552 5552 5552 5552 5552 5551 5551 5551 5551 5551
5509 5510 5511 5512 5513 5514 5515 5516 5517 5517 5518 5519 5519 5520 5521 5522 5523 5524 5524 5524 5525 5527 5529 5529 5529 5529 5530 5532 5533 5533 5534 5535 5536 5536 5536 5538 5539 5538 5537 5538 5540 5542 5542 5541 5542 5542 5544 5544 5543 5544 5544 5545 5545 5545 5546 5546 5546 5546 5546 5546 5546 5546 5547 5547 5547 5547 5547 5546 5546 5546 5546 5546 5546 5546 5546 5546 5547 5547 5547 5547 5547 5547 5547 5546 5546 5546
5503 5504 5505 5506 5507 5508 5509 5510 5511 5512 5512 5513 5514 5515 5515 5517 5518 5518 5518 5518 5520 5522 5523 5523 5523 5524 5526 5527 5527 5528 5529 5530 5530 5529 5530 5533 5534 5532 5531 5533 5535 5537 5537 5536 5537 5537 5539 5538 5538 5539 5539 5540 5540 5540 5541 5541 5541 5541 5541 5541 5541 5541 5542 5542 5542 5542 5542 5542 5542 5542 5542 5542 5542 5542 5541 5541 5542 5542 5542 5542 5542 5542 5542 5542 5541 5541
5498 5499 5500 5500 5501 5502 5503 5504 5505 5506 5507 5507 5508 5509 5510 5511 5512 5513 5513 5513 5515 5517 5517 5517 5517 5519 5521 5522 5522 5523 5524 5524 5523 5524 5526 5528 5528 5526 5525 5528 5530 5531 5530 5531 5532 5532 5533 5532 5533 5534 5535 5535 5535 5535 5536 5536 5536 5536 5536 5536 5536 5536 5536 5537 5537 5537 5537 5537 5537 5537 5537 5537 5537 5537 5537 5537 5537 5537 5537 5537 5537 5537 5537 5537 5537 5537
5492 5493 5494 5495 5495 5496 5497 5498 5499 5500 5501 5502 5503 5503 5504 5505 5506 5507 5507 5508 5510 5512 5512 5511 5512 5514 5515 5516 5517 5518 5518 5517 5517 5518 5521 5523 5522 5520 5520 5523 5525 5524 5524 5526 5527 5528 5527 5526 5527 5529 5530 5530 5530 5530 5530 5531 5531 5531 5531 5531 5531 5531 5531 5531 5532 5532 5532 5532 5532 5532 5532 5532 5532 5532 5532 5532 5532 5532 5532 5532 5532 5532 5532 5532 5532 5532
5487 5488 5488 5489 5489 5490 5492 5493 5493 5494 5495 5496 5497 5498 5499 5500 5501 5502 5502 5503 5505 5506 5506 5507 5507 5508 5510 5511 5512 5512 5512 5512 5512 5513 5516 5517 5516 5514 5514 5517 5519 5518 5518 5520 5522 5522 5522 5521 5522 5523 5525 5525 5525 5525 5525 5526 5526 5526 5526 5526 5526 5526 5526 5526 5527 5527 5527 5527 5527 5527 5527 5527 5527 5527 5527 5527 5527 5527 5527 5527 5527 5527 5527 5527 5527 5527
5481 5482 5482 5483 5484 5485 5486 5487 5487 5488 5489 5490 5491 5492 5493 5494 5495 5496 5497 5498 5499 5500 5501 5502 5503 5503 5504 5505 5507 5507 5507 5507 5507 5508 5510 5511 5510 5509 5509 5511 5512 5512 5512 5514 5516 5517 5517 5516 5517 5517 5519 5520 5520 5520 5520 5521 5521 5521 5521 5521 5521 5521 5521 5521 5522 5522 5522 5522 5522 5522 5522 5522 5522 5522 5522 5522 5522 5522 5522 5522 5522 5522 5522 5522 5522 5522
5475 5476 5477 5477 5478 5479 5480 5481 5482 5483 5484 5485 5485 5486 5487 5488 5489 5491 5491 5492 5493 5494 5495 5497 5498 5498 5499 5500 5501 5501 5502 5502 5501 5502 5503 5505 5505 5504 5503 5505 5507 5507 5507 5508 5510 5511 5511 5511 5512 5512 5513 5514 5514 5515 5515 5516 5516 5516 5516 5517 5517 5516 5516 5516 5517 5517 5517 5517 5517 5518 5517 5518 5518 5518 5518 5517 5517 5517 5517 5517 5517 5517 5517 5517 5517 5517
5469 5470 5471 5472 5472 5473 5474 5475 5476 5477 5478 5479 5480 5481 5482 5483 5484 5485 5486 5487 5487 5488 5489 5491 5492 5493 5494 5495 5495 5496 5496 5496 5496 5497 5498 5499 5499 5499 5498 5500 5501 5501 5502 5502 5503 5504 5505 5506 5506 5507 5507 5508 5509 5509 5510 5511 5511 5511 5512 5512 5512 5512 5511 5512 5512 5512 5512 5512 5513 5513 5513 5513 5513 5513 5513 5513 5512 5512 5512 5512 5512 5512 5512 5512 5512 5512
5463 5464 5464 5466 5467 5468 5468 5469 5470 5472 5472 5473 5474 5475 5476 5477 5478 5479 5480 5481 5482 5483 5484 5485 5486 5487 5488 5489 5490 5491 5491 5490 5491 5492 5493 5493 5493 5493 5494 5494 5494 5495 5496 5497 5498 5498 5499 5500 5500 5501 5502 5503 5503 5504 5504 5505 5506 5507 5507 5507 5507 5507 5507 5507 5507 5508 5508 5508 5508 5508 5508 5508 5508 5508 5508 5508 5508 5508 5507 5507 5507 5507 5507 5507 5507 5507
5456 5457 5458 5459 5461 5462 5463 5463 5464 5466 5467 5467 5468 5469 5471 5472 5473 5473 5474 5476 5477 5477 5478 5479 5480 5481 5482 5483 5484 5485 5485 5485 5486 5487 5488 5488 5488 5489 5490 5489 5489 5489 5492 5492 5492 5492 5493 5495 5495 5495 5496 5497 5498 5498 5498 5500 5502 5503 5503 5502 5502 5502 5502 5502 5503 5503 5503 5503 5503 5503 5503 5503 5503 5503 5503 5503 5503 5503 5503 5502 5502 5502 5502 5502 5502 5503
5449 5450 5451 5453 5454 5456 5457 5457 5458 5460 5461 5462 5462 5464 5465 5466 5467 5468 5469 5470 5471 5472 5472 5473 5474 5475 5476 5477 5478 5479 5480 5480 5481 5482 5482 5482 5483 5484 5485 5484 5484 5484 5486 5487 5487 5487 5488 5489 5490 5490 5490 5491 5492 5493 5494 5495 5497 5498 5498 5497 5497 5498 5498 5498 5498 5498 5499 5499 5499 5498 5499 5499 5499 5499 5498 5498 5498 5498 5498 5498 5497 5497 5498 5498 5498 5498
5442 5444 5445 5446 5448 5449 5450 5452 5452 5453 5455 5456 5457 5458 5459 5460 5461 5462 5463 5464 5465 5466 5467 5467 5468 5469 5470 5471 5472 5473 5474 5475 5476 5476 5477 5477 5478 5479 5479 5480 5479 5480 5480 5481 5482 5482 5483 5484 5484 5485 5485 5486 5487 5487 5488 5490 5491 5492 5492 5492 5493 5494 5493 5493 5493 5493 5494 5494 5494 5494 5494 5494 5494 5494 5494 5494 5494 5494 5494 5493 5493 5493 5493 5493 5493 5493
5436 5437 5438 5439 5441 5442 5444 5445 5446 5447 5448 5450 5451 5452 5453 5454 5455 5456 5457 5459 5460 5461 5462 5462 5463 5463 5464 5465 5467 5467 5468 5469 5470 5471 5471 5472 5473 5473 5474 5475 5475 5475 5475 5476 5477 5478 5478 5479 5479 5479 5480 5481 5482 5482 5483 5484 5485 5486 5487 5488 5488 5488 5488 5488 5488 5489 5489 5489 5489 5489 5489 5489 5490 5490 5490 5489 5489 5489 5489 5489 5488 5488 5488 5488 5488 5488
5429 5430 5432 5432 5434 5435 5437 5438 5439 5441 5442 5444 5445 5446 5447 5448 5449 5450 5451 5453 5454 5456 5457 5458 5458 5459 5459 5460 5461 5462 5463 5464 5465 5466 5466 5467 5467 5468 5469 5470 5470 5471 5471 5472 5472 5473 5474 5474 5474 5475 5475 5476 5477 5477 5477 5478 5479 5480 5481 5482 5482 5482 5482 5483 5484 5484 5484 5484 5484 5485 5485 5485 5485 5485 5485 5485 5485 5485 5484 5484 5484 5484 5483 5484 5484 5484
5422 5423 5424 5425 5427 5428 5430 5431 5432 5434 5436 5437 5438 5439 5440 5442 5443 5444 5446 5447 5448 5449 5450 5452 5453 5455 5455 5456 5456 5457 5458 5459 5460 5460 5461 5462 5462 5463 5464 5465 5466 5466 5467 5468 5468 5468 5469 5469 5470 5470 5470 5471 5472 5472 5473 5473 5474 5475 5476 5477 5477 5477 5477 5479 5479 5479 5479 5479 5479 5480 5480 5480 5480 5480 5480 5480 5480 5480 5480 5480 5480 5479 5479 5479 5479 5479
5415 5415 5416 5417 5419 5421 5422 5424 5426 5427 5428 5430 5431 5432 5433 5435 5437 5438 5439 5441 5442 5443 5445 5446 5447 5449 5450 5451 5452 5452 5453 5454 5454 5455 5456 5457 5457 5458 5459 5460 5461 5462 5463 5463 5464 5464 5464 5465 5466 5466 5466 5467 5467 5468 5468 5468 5468 5470 5471 5471 5471 5472 5473 5473 5473 5474 5475 5475 5475 5475 5475 5476 5476 5475 5475 5476 5476 5475 5475 5475 5475 5475 5474 5474 5474 5474
5407 5407 5409 5410 5412 5413 5415 5417 5418 5420 5421 5423 5424 5425 5427 5428 5430 5432 5433 5434 5435 5437 5438 5440 5441 5443 5444 5446 5447 5447 5448 5449 5450 5451 5452 5452 5453 5453 5454 5455 5456 5457 5458 5459 5459 5459 5460 5461 5461 5461 5461 5462 5463 5463 5463 5463 5464 5465 5465 5465 5466 5467 5467 5467 5467 5469 5470 5470 5470 5470 5470 5471 5471 5471 5471 5471 5471 5471 5470 5470 5470 5470 5470 5470 5470 5470
5399 5400 5401 5403 5404 5406 5407 5409 5410 5412 5414 5416 5417 5418 5420 5422 5423 5425 5426 5427 5428 5430 5432 5433 5435 5437 5438 5438 5440 5442 5443 5444 5445 5446 5447 5447 5448 5449 5450 5450 5451 5452 5453 5454 5455 5455 5456 5456 5456 5456 5457 5458 5459 5459 5458 5459 5459 5460 5460 5461 5461 5462 5462 5462 5462 5464 5465 5465 5465 5465 5466 5466 5466 5466 5466 5466 5466 5466 5466 5466 5466 5465 5465 5465 5465 5465
5392 5392 5394 5395 5397 5398 5400 5401 5402 5404 5407 5408 5410 5411 5412 5414 5417 5418 5420 5421 5422 5424 5425 5427 5429 5431 5431 5432 5433 5436 5437 5439 5440 5441 5442 5443 5444 5444 5445 5446 5446 5447 5448 5449 5450 5451 5451 5452 5452 5452 5453 5454 5454 5454 5454 5455 5455 5455 5455 5456 5457 5457 5457 5457 5458 5459 5459 5459 5460 5460 5461 5461 5461 5461 5461 5461 5461 5461 5461 5461 5461 5461 5460 5460 5460 5460
5384 5385 5386 5387 5389 5391 5392 5393 5395 5397 5399 5400 5402 5403 5405 5407 5409 5411 5413 5415 5416 5418 5419 5421 5423 5424 5425 5426 5428 5431 5432 5433 5434 5436 5437 5438 5439 5440 5440 5441 5442 5442 5443 5444 5445 5446 5447 5447 5447 5448 5449 5449 5449 5449 5450 5451 5451 5451 5451 5451 5452 5452 5452 5452 5453 5453 5454 5454 5455 5455 5455 5456 5457 5457 5456 5456 5456 5456 5456 5456 5456 5456 5456 5456 5456 5456
5377 5378 5380 5381 5382 5383 5384 5386 5387 5390 5392 5393 5394 5396 5398 5400 5402 5404 5406 5407 5410 5412 5414 5416 5417 5418 5419 5420 5422 5424 5426 5427 5429 5431 5432 5433 5434 5435 5436 5436 5437 5438 5438 5439 5440 5441 5442 5442 5443 5443 5444 5445 5445 5445 5445 5446 5447 5447 5447 5447 5447 5448 5448 5447 5448 5448 5449 5449 5450 5450 5450 5451 5451 5451 5451 5451 5452 5452 5452 5451 5451 5451 5451 5451 5451 5451
5372 5373 5374 5375 5376 5377 5378 5379 5381 5382 5384 5386 5388 5390 5392 5393 5395 5397 5398 5400 5403 5406 5408 5410 5411 5413 5414 5416 5417 5418 5420 5422 5423 5425 5427 5428 5429 5430 5431 5432 5432 5433 5434 5435 5436 5436 5437 5437 5438 5439 5439 5440 5441 5441 5441 5442 5442 5443 5443 5443 5443 5443 5443 5443 5443 5444 5445 5445 5445 5445 5446 5446 5446 5446 5446 5447 5447 5447 5447 5447 5447 5446 5446 5446 5446 5446
5367 5368 5369 5369 5371 5372 5372 5373 5375 5377 5378 5380 5382 5384 5386 5387 5389 5391 5392 5394 5397 5399 5402 5403 5405 5407 5409 5411 5412 5413 5415 5416 5417 5419 5421 5422 5423 5424 5426 5426 5427 5429 5430 5431 5431 5432 5433 5433 5433 5434 5434 5436 5436 5436 5436 5437 5437 5438 5439 5439 5439 5439 5439 5439 5439 5439 5440 5440 5440 5440 5441 5441 5441 5441 5442 5442 5442 5442 5442 5442 5442 5441 5440 5440 5441 5441
5363 5364 5364 5365 5366 5367 5367 5368 5370 5372 5373 5375 5377 5379 5381 5383 5384 5386 5387 5389 5391 5393 5395 5397 5400 5402 5403 5405 5407 5408 5410 5411 5412 5414 5415 5417 5418 5419 5420 5421 5422 5424 5425 5426 5426 5427 5428 5429 5429 5429 5430 5431 5432 5432 5432 5432 5433 5434 5434 5434 5434 5434 5435 5434 5434 5435 5435 5436 5436 5436 5436 5436 5436 5437 5437 5438 5437 5437 5437 5437 5437 5436 5435 5435 5435 5435